Theta_e
319 319 319 318 318 317 317 317 318 318 317 318 318 318 319 318 319 319 319 320 320 319 318 318 319 320 320 321 321 323 324 321 322 327 329 330 330 326 326 328 328 329 329 329 330 330 331 332 333 333 332 333 333 332 332 332 332 332 331 329 329 330 330 328 327 326 325 325 325 325 325 325 325 325
319 320 319 319 319 317 317 317 318 318 317 317 317 317 318 318 319 320 319 319 319 319 318 318 318 319 319 319 319 321 322 321 321 325 327 328 326 323 325 327 327 329 329 330 330 330 330 331 331 332 332 332 333 333 333 332 332 332 332 331 329 328 329 329 329 327 326 325 325 325 325 325 324 324
319 319 319 319 319 318 317 317 317 317 318 317 316 316 317 318 319 319 319 319 319 318 318 317 317 318 318 319 319 319 320 320 320 322 325 325 323 323 326 326 325 327 328 328 329 330 330 330 330 331 330 331 332 332 333 333 333 333 332 332 330 328 328 329 329 329 328 327 326 326 326 325 324 324
320 320 319 319 319 318 317 317 316 317 317 318 317 317 317 317 318 319 319 319 318 317 317 317 316 317 317 318 319 319 319 320 320 321 323 323 323 324 327 326 324 324 325 326 327 327 328 329 329 330 330 330 330 331 332 332 333 333 332 332 332 330 329 328 328 329 329 329 328 327 326 326 325 325
320 321 320 319 319 319 319 318 317 317 317 317 318 318 317 317 318 318 319 318 318 318 317 316 316 317 317 318 318 319 320 320 320 321 321 322 323 323 324 325 324 323 323 325 326 326 327 327 328 328 329 329 330 330 331 332 332 332 332 332 333 332 332 330 328 328 328 329 329 328 328 327 326 326
320 321 321 320 319 320 320 319 318 317 317 317 317 318 317 317 317 317 318 318 318 318 317 316 316 316 316 316 317 318 318 319 320 321 321 321 322 322 322 323 324 323 322 323 325 325 326 327 327 327 327 328 329 330 331 331 331 331 331 332 332 332 332 332 330 329 329 329 330 329 329 328 328 327
320 320 321 320 320 320 320 320 319 318 317 316 316 317 316 317 317 317 317 318 318 318 317 316 315 315 315 315 315 315 315 315 316 318 321 321 320 321 322 322 323 323 320 321 323 323 324 324 325 327 327 327 327 328 328 330 330 330 331 331 331 331 331 331 331 330 330 330 329 330 330 329 329 328
320 320 320 320 320 320 320 320 319 319 318 317 316 316 316 317 317 316 317 317 318 318 317 316 315 315 315 315 315 315 313 312 312 314 318 321 320 320 321 321 321 321 319 317 319 321 320 321 321 323 325 327 327 328 327 328 328 329 330 330 329 330 330 330 330 330 330 330 330 330 329 329 329 329
320 320 320 320 320 320 320 320 319 319 319 318 317 316 316 316 316 316 316 317 317 317 316 316 315 315 316 316 315 315 314 313 313 313 315 318 319 320 321 321 320 320 320 319 320 320 320 320 320 319 320 322 324 327 327 327 327 327 328 328 328 329 329 329 329 329 329 330 330 330 329 329 329 329
320 319 319 319 319 320 321 320 320 319 319 319 319 318 317 317 316 316 316 316 316 316 316 315 315 315 315 316 316 315 315 315 316 316 316 316 318 320 320 320 320 320 321 321 320 320 320 320 319 318 317 318 319 324 326 327 327 327 326 326 327 328 328 329 329 329 328 329 329 329 329 329 329 329
321 321 320 320 320 320 321 321 320 319 319 319 319 319 318 318 318 317 317 316 316 316 315 315 315 315 315 315 315 315 315 315 316 317 317 317 318 319 319 319 320 319 320 320 319 319 319 319 319 318 319 319 319 321 324 325 326 326 326 326 326 327 327 328 329 329 329 328 328 328 328 329 329 329
323 322 322 321 321 320 321 320 320 320 319 319 319 319 319 318 318 318 317 317 317 316 315 315 315 315 315 315 314 314 315 315 316 316 317 318 318 318 318 319 319 319 319 319 319 319 319 320 320 321 321 322 320 319 320 322 323 324 325 325 326 326 327 327 328 328 327 327 328 327 328 328 328 329
323 323 323 322 321 321 320 319 318 317 317 317 318 319 319 319 318 318 318 318 317 316 315 315 315 315 315 315 315 315 315 315 316 317 317 317 317 317 317 318 318 318 318 318 318 319 320 320 321 321 322 322 321 320 319 319 320 321 322 323 324 324 325 326 326 326 325 326 327 328 327 328 328 328
323 323 323 323 322 320 318 317 316 316 315 315 315 316 317 319 319 318 317 317 317 317 316 315 315 315 315 315 315 315 315 315 316 317 316 316 316 316 317 317 317 317 318 318 318 318 319 320 320 320 321 321 320 320 319 319 319 320 320 321 322 322 323 324 324 325 326 327 328 328 328 328 328 328
323 323 323 323 323 321 319 318 317 316 315 316 315 313 313 315 318 319 318 318 317 317 316 316 315 315 315 315 315 315 315 315 316 316 316 315 315 315 315 316 316 316 317 317 317 317 318 319 319 319 320 321 321 320 319 319 319 320 320 320 321 321 322 323 323 324 325 325 327 327 328 328 328 328
324 323 323 323 324 324 322 320 320 319 317 316 316 315 312 310 312 315 316 317 317 317 317 316 316 316 315 315 315 315 315 314 315 315 315 315 315 314 314 315 315 315 316 316 316 316 317 317 318 319 319 320 320 319 318 318 318 318 319 319 320 320 321 321 322 322 323 323 324 325 326 327 327 327
325 325 324 324 324 325 324 322 321 321 321 319 318 317 315 311 310 311 312 313 314 315 316 317 317 317 316 316 315 315 316 315 314 314 315 315 315 314 314 315 315 314 315 316 316 316 316 316 317 318 318 320 320 319 318 317 316 316 317 317 318 319 319 320 320 320 321 321 321 322 323 324 325 325
326 326 325 325 324 324 325 324 323 322 322 321 321 320 318 314 311 311 311 311 311 312 313 315 316 316 316 317 316 316 316 316 314 314 315 315 315 315 315 315 315 315 315 315 315 315 315 316 316 317 317 319 320 319 318 317 316 316 316 315 316 317 318 319 319 319 319 319 319 320 320 320 321 322
327 327 327 326 325 325 325 325 325 324 322 322 322 322 321 319 317 315 314 312 312 312 312 312 314 315 316 317 317 317 317 316 315 314 314 315 315 314 314 314 315 315 315 315 315 315 315 315 315 316 317 318 319 319 318 317 316 316 315 314 314 315 317 318 318 317 317 317 317 317 317 318 318 319
328 328 328 328 327 326 326 325 325 324 323 323 322 322 322 321 320 319 318 316 315 313 312 312 314 315 315 316 316 316 316 316 315 315 315 315 315 314 314 314 314 314 314 315 316 316 315 315 315 316 316 317 318 319 318 317 316 316 315 314 314 315 315 315 316 316 316 316 315 315 316 316 316 316
328 328 328 328 328 328 327 326 325 323 322 322 323 322 322 322 321 321 320 318 317 315 314 313 313 313 313 312 312 313 314 314 313 314 314 315 315 314 314 314 314 314 314 315 316 316 315 314 315 316 316 317 317 318 318 317 316 316 316 315 314 314 314 314 315 315 315 315 315 315 315 315 315 314
328 328 327 327 327 327 327 326 326 324 322 322 322 323 323 322 322 321 321 320 319 317 315 313 312 311 311 311 311 311 312 313 312 312 312 314 314 314 315 314 313 313 314 314 315 315 315 314 314 315 316 317 317 317 317 317 316 316 315 315 314 314 314 314 315 315 314 314 315 315 314 314 313 313
327 326 326 326 325 325 324 324 324 323 322 321 322 323 323 323 322 321 321 321 321 320 318 316 313 311 310 310 311 311 311 313 312 311 311 313 314 314 314 314 313 313 313 316 316 315 314 314 314 315 316 317 316 317 317 317 317 316 314 314 313 313 313 314 314 314 313 313 313 313 313 313 313 312
326 324 323 324 324 324 322 321 320 320 320 320 321 322 324 323 323 323 322 322 322 321 321 319 317 315 314 312 311 311 312 312 312 310 310 311 313 314 314 314 314 312 313 315 316 315 315 315 315 315 316 316 316 317 317 317 317 316 315 314 314 313 312 312 312 312 312 312 312 312 311 311 311 310
325 324 324 324 325 325 324 321 319 319 319 319 320 321 322 323 323 323 323 323 322 321 321 320 320 319 318 317 315 314 315 314 311 309 308 310 313 314 314 314 314 313 313 315 315 315 316 316 315 314 315 315 316 316 316 317 317 317 315 314 313 313 312 312 312 312 312 311 311 311 311 310 309 309
323 324 324 325 324 325 324 322 320 319 319 318 318 319 320 320 320 321 322 321 321 320 320 319 318 319 319 319 318 317 317 316 314 311 310 310 312 314 315 315 314 314 314 315 315 315 316 316 315 315 315 315 315 316 316 316 316 317 316 314 313 313 312 312 313 313 313 312 311 310 310 309 309 308
322 323 323 323 323 324 324 323 321 320 319 319 318 318 318 317 317 318 318 318 318 318 319 319 319 319 318 319 318 317 316 316 316 315 315 314 314 315 315 315 315 315 315 315 315 315 316 316 316 316 316 316 316 316 316 315 315 316 316 315 314 313 312 312 313 313 312 312 311 310 310 309 308 307
320 322 322 321 321 322 322 321 320 320 319 318 318 318 318 317 316 315 315 316 316 317 317 318 319 319 319 318 318 317 316 315 316 316 316 315 316 316 315 315 315 315 314 314 315 315 315 315 316 316 316 316 317 316 316 315 315 315 316 315 314 313 312 312 312 312 312 312 311 311 310 309 308 308
317 318 318 317 318 318 318 318 317 317 318 317 317 317 317 316 314 313 313 315 316 316 317 318 318 319 319 319 318 317 317 315 315 317 316 316 316 316 316 316 316 315 313 311 312 315 315 315 315 315 316 316 316 316 316 315 315 314 315 315 314 313 312 312 312 312 312 311 311 310 310 309 308 307
318 319 318 318 317 317 316 316 316 317 317 317 316 316 316 315 313 312 314 315 316 316 317 318 319 319 319 319 318 318 317 315 315 317 316 315 315 315 316 316 316 316 314 312 312 314 315 315 315 315 315 316 316 315 315 315 315 314 314 314 314 314 313 312 312 312 311 311 310 310 309 308 307 306
319 319 319 318 319 318 318 317 316 316 316 316 316 316 315 314 313 314 315 316 316 316 317 318 319 319 319 319 318 317 317 317 317 316 315 315 315 315 316 316 316 316 315 314 314 314 314 315 315 315 315 315 315 315 315 314 315 315 314 314 314 314 313 312 312 311 311 310 310 309 309 308 307 306
314 314 315 316 318 320 321 320 320 319 318 317 317 317 317 316 315 315 316 316 316 316 317 318 319 319 319 319 318 317 317 318 317 316 315 314 314 315 316 317 316 316 315 315 315 315 314 314 314 314 315 314 314 314 314 314 314 315 314 314 314 314 313 312 311 311 310 308 309 309 308 307 306 305
313 312 313 315 317 318 319 320 321 321 321 320 320 320 319 318 317 316 316 316 316 316 316 316 317 317 318 318 318 318 318 318 317 316 315 314 314 314 315 316 316 316 315 314 315 315 314 314 314 314 314 314 314 313 313 314 314 314 314 314 314 313 313 311 311 310 308 308 308 309 308 307 305 304
312 313 315 316 316 316 316 317 318 319 321 321 322 321 321 320 319 318 317 316 316 316 315 314 315 316 316 317 317 317 316 316 316 315 315 314 314 313 315 315 316 316 315 314 313 314 314 314 314 313 313 313 313 313 313 313 314 314 314 314 314 313 313 311 310 309 308 308 308 308 308 307 305 302
313 315 316 317 317 316 317 318 318 318 319 321 321 322 321 321 319 318 316 316 317 316 315 315 315 315 316 317 317 315 314 315 315 315 314 314 313 313 314 315 316 316 316 315 313 313 313 314 313 313 313 313 313 313 313 313 313 313 313 313 313 313 312 310 309 308 307 307 307 307 307 307 305 302
314 316 316 316 317 317 318 318 318 319 320 320 320 321 321 321 320 318 317 317 317 316 316 316 316 316 316 316 317 316 315 315 315 315 315 313 313 313 314 315 316 316 316 315 314 313 312 313 313 313 313 313 313 312 313 313 312 312 313 313 312 312 310 308 307 306 306 306 306 306 306 307 305 302
314 315 315 316 317 317 317 318 318 318 319 320 320 320 320 320 320 319 318 317 317 316 316 316 316 316 316 316 316 317 316 315 315 316 315 315 314 315 315 315 316 316 315 315 314 313 313 313 313 314 313 312 311 311 312 313 312 311 311 312 312 310 308 307 306 305 305 305 305 305 306 306 305 302
313 313 314 314 315 316 316 316 317 317 318 318 319 319 319 319 319 319 319 318 317 317 316 315 315 315 315 316 316 316 316 316 316 316 315 315 315 316 316 316 316 316 316 316 314 313 313 314 314 314 313 312 311 311 311 313 312 311 310 311 311 310 308 307 307 306 305 305 305 305 304 304 303 301
311 311 312 312 312 313 314 315 315 316 316 317 317 318 318 318 317 317 318 318 317 317 317 316 315 315 315 315 316 316 316 316 316 316 316 315 316 316 316 316 316 316 316 316 314 313 314 314 314 314 313 312 311 311 311 312 312 312 310 310 310 309 308 307 307 307 306 306 304 303 301 301 300 299
309 310 310 311 311 311 312 313 314 315 315 316 316 317 317 317 317 317 317 317 317 317 317 317 316 316 315 315 315 315 316 315 315 315 315 315 315 315 316 316 316 316 315 315 315 314 314 314 314 313 313 311 311 312 312 311 311 311 309 309 309 308 307 307 307 307 306 305 303 302 302 301 300 299
309 309 309 310 310 311 312 313 313 314 314 315 315 316 316 316 316 316 316 316 315 316 317 316 316 316 316 316 316 315 315 314 313 314 314 314 314 315 315 315 315 315 314 315 315 315 315 314 313 313 312 311 311 312 311 310 310 311 309 308 308 307 306 306 307 307 306 305 304 304 304 303 302 302
308 309 309 309 310 310 311 312 313 313 313 314 314 314 315 315 315 315 315 315 314 315 315 315 315 315 316 316 316 315 314 313 313 313 314 314 314 315 315 315 315 314 314 314 314 315 315 314 313 313 312 312 312 312 311 310 310 310 309 307 306 306 305 305 306 305 305 304 304 304 304 303 303 303
308 309 309 309 309 310 310 310 311 312 312 313 313 313 313 314 314 314 314 315 315 315 315 315 314 315 315 315 314 314 314 314 313 314 314 313 313 314 315 315 315 314 313 314 314 314 315 314 314 313 313 312 311 311 310 310 310 309 307 305 304 303 303 304 305 304 304 303 303 302 302 302 302 302
308 308 309 309 310 310 310 310 311 311 312 312 312 312 313 313 313 313 314 314 314 314 315 315 314 314 314 314 314 314 314 314 313 313 313 313 314 314 315 315 315 314 313 314 314 313 314 314 313 312 312 311 311 310 310 310 310 309 307 304 302 300 300 301 302 302 302 301 301 301 300 300 299 299
309 309 309 309 309 309 310 310 310 311 311 311 312 312 312 312 312 312 312 313 313 314 314 314 314 314 313 313 313 313 313 313 312 312 313 313 314 315 314 315 315 314 313 314 314 313 313 313 312 311 311 311 310 309 309 309 310 308 305 302 300 299 298 299 300 300 298 298 299 299 299 299 298 297
Wind_Speed
4 4 4 4 5 5 5 5 5 5 5 5 5 6 6 6 5 4 3 3 1 3 5 4 4 7 8 8 7 6 5 7 8 6 4 3 3 5 5 5 6 7 8 10 12 13 12 10 11 13 16 20 24 29 32 34 34 33 32 32 32 32 32 31 31 31 31 31 30 29 29 29 29 29
4 4 4 4 5 4 4 5 5 5 5 5 5 5 5 6 5 5 5 3 2 3 5 5 5 7 8 8 8 6 6 7 8 7 5 5 5 5 4 5 5 6 6 8 9 11 12 12 12 12 13 14 18 24 28 30 32 32 32 33 33 33 32 32 32 32 32 32 31 31 30 30 30 30
4 5 4 4 4 4 4 4 4 4 5 6 5 5 5 5 5 6 6 4 2 3 6 6 7 7 7 8 7 7 6 8 8 7 5 6 6 5 4 4 5 6 6 7 7 8 9 10 12 13 13 13 15 18 22 26 28 30 31 33 33 33 34 33 33 33 34 34 33 32 32 31 31 31
5 6 6 5 5 4 4 4 4 4 5 5 6 6 5 5 5 5 6 5 5 6 7 7 8 7 7 7 7 7 7 8 8 7 6 6 7 5 4 4 6 6 6 6 7 7 8 9 10 12 14 15 16 17 19 21 23 26 29 31 32 32 33 33 34 34 34 34 34 34 33 32 31 31
7 7 7 6 5 5 5 4 4 4 4 5 6 6 6 5 5 5 6 6 6 7 7 7 8 7 7 7 6 7 8 8 8 8 7 7 7 6 6 5 5 7 7 6 6 7 7 8 9 11 12 14 16 18 20 20 21 22 25 28 30 30 30 32 35 36 36 35 35 36 36 34 33 32
8 8 8 7 6 5 5 6 6 5 5 5 5 6 6 6 5 5 6 7 7 7 7 7 7 6 7 7 6 6 8 8 8 8 7 7 6 6 7 6 5 8 9 8 7 7 6 7 7 9 11 12 14 16 18 20 22 22 22 24 27 28 29 30 33 36 37 37 37 37 36 36 36 35
8 8 8 8 7 6 6 6 6 6 6 6 6 6 6 6 6 6 6 7 7 7 8 7 6 6 6 7 6 6 7 8 8 8 8 7 6 6 7 7 6 9 10 9 9 8 7 7 7 7 8 10 12 14 15 18 20 20 22 24 26 27 28 29 31 33 36 38 38 38 37 37 38 39
9 9 9 9 8 7 7 7 6 7 7 7 6 6 6 6 6 6 6 6 6 7 8 7 6 6 6 6 6 7 8 8 8 8 8 7 7 7 7 7 7 9 11 10 9 9 9 9 8 8 8 8 10 12 14 16 17 18 20 23 26 28 29 29 30 31 32 34 37 38 39 39 39 39
11 11 11 10 9 9 8 7 7 6 7 8 7 7 7 6 6 6 6 7 7 7 7 6 5 6 6 6 6 6 8 9 8 7 6 6 7 7 7 7 7 9 10 8 8 9 9 10 11 10 9 9 9 9 11 14 16 17 18 19 21 25 28 30 31 31 31 32 34 35 37 39 40 40
13 12 12 12 11 10 9 8 8 7 7 8 9 8 8 8 7 7 7 7 7 7 7 6 6 6 5 6 6 6 7 9 8 7 6 6 6 6 6 7 7 7 8 8 8 8 8 10 12 11 10 10 9 8 9 10 12 14 16 16 17 19 21 25 29 31 32 32 32 33 34 36 38 40
13 13 13 13 13 12 11 10 8 8 8 8 9 9 9 9 8 8 8 7 7 7 7 7 7 6 6 6 7 6 7 8 7 7 7 7 6 6 6 7 7 7 7 8 9 9 8 9 12 12 11 10 9 8 9 10 11 12 13 15 16 16 17 19 23 27 31 32 32 31 32 33 35 37
14 14 14 14 14 13 13 12 10 9 8 8 9 10 9 9 9 9 8 8 8 8 7 7 7 7 7 7 7 6 6 7 7 6 7 7 7 7 7 7 7 7 7 8 9 9 9 9 10 10 9 9 10 9 8 9 10 11 12 14 15 16 17 18 20 22 24 27 29 30 30 31 33 34
14 14 14 14 15 15 15 16 15 13 12 11 10 10 9 10 10 10 10 9 8 8 8 8 7 7 8 7 7 7 6 7 7 7 7 7 7 8 9 8 7 7 7 8 9 9 8 8 9 9 7 8 9 9 7 7 8 9 10 11 12 13 15 17 19 18 18 20 24 27 29 30 32 33
15 15 14 14 16 17 18 19 18 17 16 15 14 13 12 11 10 11 11 10 10 9 9 9 8 8 8 7 8 8 7 6 7 7 7 7 7 8 8 8 7 6 7 8 10 9 8 8 9 9 8 9 8 6 6 7 7 7 8 8 9 10 11 13 15 15 15 17 20 22 24 27 29 32
16 16 15 15 15 17 17 18 18 19 19 18 18 17 17 16 15 13 12 11 11 11 10 10 10 9 9 8 8 9 8 6 6 6 7 7 7 8 8 8 7 5 5 8 11 11 9 9 10 10 9 8 7 6 8 9 8 7 7 7 7 8 9 9 11 12 14 15 16 18 20 22 24 27
17 17 16 15 15 16 17 17 17 17 19 20 20 19 19 20 21 20 18 15 13 12 12 12 11 11 10 10 10 10 9 7 6 7 8 7 6 7 8 9 8 7 6 9 12 12 11 10 10 11 9 7 7 10 11 11 9 8 8 7 6 7 7 7 8 9 11 12 12 14 16 18 20 23
19 18 18 17 16 16 17 18 17 17 17 19 20 20 20 20 22 24 24 23 20 17 15 14 13 12 11 12 12 10 9 8 7 8 8 7 7 7 8 10 11 11 9 10 12 12 12 11 11 12 10 7 7 10 12 11 11 11 10 9 7 6 6 6 6 6 7 7 8 9 11 14 16 18
22 21 20 20 19 18 18 18 18 18 18 18 19 19 21 22 23 24 26 26 26 25 23 19 17 15 13 14 14 12 10 9 9 8 8 8 7 8 9 11 12 12 11 10 11 12 11 11 11 11 10 7 7 10 12 12 12 12 11 9 8 7 7 8 7 6 6 5 5 6 8 10 11 14
24 24 23 23 22 21 20 20 20 20 18 18 18 18 19 20 21 22 24 26 27 29 29 26 22 18 17 16 15 13 12 11 10 9 9 9 8 9 10 10 10 11 10 9 10 12 12 11 11 11 10 8 8 9 11 10 10 11 10 9 8 8 8 8 9 8 7 6 6 6 7 8 9 10
26 25 24 24 24 25 24 23 24 25 22 20 20 20 20 19 19 20 22 25 26 27 29 29 25 21 20 18 17 16 15 13 10 9 9 9 9 10 11 10 9 9 8 7 8 11 13 12 12 12 10 10 9 9 9 10 9 10 11 9 8 9 9 8 8 8 8 7 7 6 6 7 8 9
26 26 26 25 24 24 24 25 27 29 27 24 22 22 22 21 22 21 21 23 26 27 28 28 27 26 24 23 21 20 20 18 13 10 10 10 10 10 9 8 8 8 9 8 8 9 13 12 12 12 11 11 11 10 8 9 10 11 12 10 10 11 10 8 8 9 9 8 8 8 7 7 8 9
24 25 28 29 27 25 25 26 27 29 30 26 24 23 23 23 24 24 21 21 23 26 28 29 29 29 28 26 24 22 23 22 18 15 13 11 10 10 9 9 9 9 10 8 7 8 12 12 12 12 12 11 13 11 7 7 9 10 10 10 10 10 9 8 9 10 9 9 9 9 9 9 9 10
19 21 24 28 29 29 28 27 27 28 29 28 26 24 23 24 26 26 23 21 20 22 25 28 30 31 30 29 27 25 24 23 21 20 17 14 12 12 11 10 10 9 6 3 4 8 12 12 11 11 10 10 10 9 7 7 7 6 6 6 9 12 12 10 9 9 9 9 9 9 9 10 10 9
17 22 25 27 30 32 32 30 29 30 31 30 27 23 22 24 26 25 23 23 22 21 22 23 24 25 26 26 26 25 25 25 25 23 21 18 15 13 13 12 11 10 8 4 5 9 11 11 11 12 11 10 8 7 7 8 7 7 6 6 8 12 13 10 8 9 10 9 10 9 8 9 9 8
19 22 23 24 26 29 29 28 26 26 29 31 28 25 25 27 26 24 21 22 23 22 22 22 20 19 18 20 21 22 23 24 26 26 25 22 18 16 15 13 12 13 11 7 7 9 11 11 12 12 12 13 12 11 10 8 8 8 7 6 7 9 10 8 7 9 11 11 12 11 10 11 11 10
22 23 20 18 19 23 25 24 23 24 27 30 30 29 30 30 29 26 21 18 19 21 22 23 23 20 19 18 18 20 21 22 23 24 25 24 22 20 18 15 14 14 11 8 9 10 11 12 12 12 12 13 13 13 12 11 9 8 7 7 7 7 8 7 7 8 8 8 10 12 14 14 13 13
21 21 19 16 17 19 20 21 21 22 23 26 28 30 31 31 31 29 22 19 21 23 22 23 24 23 21 20 19 20 21 20 21 21 21 21 21 20 19 18 17 15 13 11 10 10 12 13 14 14 14 14 12 11 11 12 9 7 8 8 7 7 8 7 7 7 7 7 8 10 13 13 12 14
18 20 21 21 21 20 21 22 21 21 22 23 25 28 29 28 29 29 23 20 22 24 23 23 24 24 23 22 20 20 20 20 20 20 19 19 19 19 18 18 17 17 16 15 13 12 13 14 15 15 15 15 14 12 11 12 11 9 9 8 7 7 8 7 7 7 6 6 7 9 9 9 9 12
18 21 24 26 25 26 27 28 26 25 26 26 25 25 25 25 25 26 23 20 20 22 23 24 25 25 25 24 22 21 21 20 19 20 19 18 18 17 17 16 16 17 18 19 17 13 13 15 15 16 16 16 16 15 14 13 12 11 9 8 7 7 7 7 8 8 7 7 7 8 8 8 9 9
20 21 23 26 27 27 26 25 23 23 23 24 24 24 24 25 23 21 20 19 20 21 23 24 25 26 27 26 23 22 22 22 21 21 20 18 17 17 16 16 16 17 18 19 17 14 14 15 15 16 16 16 16 16 15 14 13 12 11 10 9 6 6 7 8 8 8 7 7 7 8 8 9 9
19 20 23 26 28 28 26 24 23 23 23 22 22 21 23 25 25 21 19 20 20 21 22 24 24 26 28 27 24 22 22 23 23 22 20 19 18 18 17 16 16 16 17 17 16 15 14 15 16 16 16 16 16 16 15 15 15 15 13 11 10 8 6 6 7 8 8 7 7 8 8 7 8 8
22 23 23 23 22 22 21 19 17 17 18 18 18 18 19 21 22 22 21 21 20 19 20 21 22 21 21 21 22 23 23 24 24 23 21 20 20 19 18 17 16 16 16 16 17 16 15 14 15 15 15 15 15 15 15 15 15 16 14 10 9 9 8 7 8 8 7 6 7 8 8 7 8 8
23 23 20 18 17 17 18 17 15 14 14 14 15 16 17 16 16 17 19 20 20 22 25 26 25 22 19 18 21 22 22 22 22 19 18 19 19 19 19 19 17 17 16 15 17 18 16 14 13 13 14 15 15 15 15 15 15 16 14 11 10 10 9 9 8 8 8 7 7 8 7 7 6 6
20 19 17 16 15 16 16 17 17 17 15 14 14 14 15 15 15 15 17 18 19 23 28 28 28 27 25 22 22 20 16 15 15 15 17 18 17 18 20 20 19 18 17 16 16 17 17 15 13 12 12 13 13 14 15 16 16 16 15 12 11 10 9 8 8 8 8 7 7 7 8 7 5 4
16 16 16 15 14 14 14 16 18 18 16 15 16 15 15 16 17 17 17 18 17 19 21 23 24 26 25 24 25 24 21 18 17 17 18 18 17 17 20 21 21 20 18 17 17 16 16 16 14 13 13 13 12 14 16 18 18 16 15 12 10 9 8 7 7 8 7 7 7 7 8 7 5 3
13 14 15 14 14 14 14 15 17 17 16 15 16 16 17 16 16 16 16 17 16 16 17 19 21 23 22 21 23 26 26 26 25 22 20 20 20 21 23 23 23 22 20 19 18 17 16 16 16 14 12 10 9 10 13 17 17 15 13 11 10 9 8 7 7 7 7 7 6 6 7 7 5 3
13 14 13 13 13 14 14 15 15 16 16 16 16 16 17 17 17 16 14 14 15 16 16 18 19 20 20 21 21 22 24 26 27 24 22 22 23 23 23 24 24 23 22 20 19 18 16 16 17 16 12 8 7 8 9 11 15 15 14 12 10 9 9 8 8 8 8 7 7 6 6 6 4 3
14 14 14 14 14 14 14 15 15 15 15 15 15 16 17 18 18 18 15 14 15 15 16 17 18 20 20 20 20 20 20 22 23 22 22 23 23 23 23 23 23 23 22 21 20 19 17 16 17 17 14 9 7 8 8 8 11 13 14 13 11 10 10 10 9 9 9 7 6 5 4 3 4 4
15 15 15 16 16 15 15 15 15 15 16 16 16 16 16 16 16 17 17 16 16 16 17 17 18 18 19 20 20 19 18 18 19 19 20 22 23 23 23 22 22 22 21 20 20 20 19 19 18 18 16 13 11 10 10 8 7 8 9 12 13 11 10 10 10 9 9 8 6 5 4 5 6 5
16 16 16 17 17 17 17 17 17 16 16 17 17 17 17 16 17 17 18 18 18 17 17 17 17 18 18 19 19 18 18 18 18 19 20 22 23 24 24 23 21 20 20 20 19 19 20 21 20 19 18 16 12 8 4 2 6 6 7 11 15 13 10 10 10 9 9 9 8 6 6 6 6 5
17 17 17 17 17 17 17 17 18 17 17 17 17 17 16 17 18 18 18 18 19 18 17 17 18 19 19 18 18 18 18 19 20 20 21 21 21 22 23 22 20 20 19 18 19 20 20 21 21 20 17 14 10 7 5 5 7 9 9 11 16 16 14 12 11 9 9 10 9 8 7 7 6 6
18 18 18 18 18 18 18 18 18 18 18 18 17 17 17 17 17 18 18 18 19 19 19 19 20 20 19 17 18 18 18 19 20 20 20 21 21 21 21 21 21 21 20 19 20 20 17 17 18 18 15 12 11 10 9 9 10 10 11 12 13 16 17 16 13 10 10 11 9 8 7 7 6 6
18 18 19 19 19 19 19 19 19 19 19 19 18 18 18 18 18 18 18 18 18 19 19 20 21 20 19 18 20 21 19 19 19 19 20 21 22 21 20 21 21 22 21 20 21 19 15 14 16 16 13 13 14 13 11 12 12 10 13 14 11 11 14 17 15 12 11 11 10 8 7 6 5 3
18 19 20 20 19 19 20 20 20 20 20 20 20 19 19 19 19 19 19 19 19 19 20 20 19 19 20 21 21 21 20 20 21 22 22 22 22 21 20 19 19 21 22 21 20 19 16 15 16 15 14 15 15 13 12 14 14 11 13 14 11 9 12 15 15 12 10 11 11 10 9 7 4 0
18 19 20 20 20 20 20 20 20 20 20 20 20 20 20 20 20 21 20 20 19 19 19 19 18 18 20 21 17 17 18 18 16 18 20 19 19 20 20 19 18 20 21 21 20 18 17 17 16 15 15 15 15 14 13 14 13 10 12 14 13 11 13 16 15 12 9 9 12 13 11 8 5 1
Wind_Direction
327 328 331 327 326 333 329 320 315 315 322 325 327 330 330 330 325 324 337 324 324 10 348 333 350 353 344 333 332 334 339 357 1 346 352 14 339 325 314 296 287 281 279 270 261 254 248 247 248 247 242 235 231 230 229 229 229 229 228 228 231 233 233 231 231 231 232 231 231 231 232 232 233 234
322 317 316 304 301 319 325 310 303 305 305 305 311 317 321 320 316 319 319 313 28 15 327 323 341 340 336 332 331 329 331 350 352 337 341 358 348 333 321 313 307 296 291 285 276 268 255 243 237 241 245 242 237 234 232 231 231 231 229 228 230 232 234 232 231 231 233 233 232 231 232 233 234 236
311 310 312 300 294 307 315 304 297 292 289 293 303 306 307 309 309 314 310 302 18 0 318 317 324 324 328 325 322 323 324 337 343 333 325 339 349 339 313 317 321 309 301 297 291 285 273 253 240 235 236 238 238 239 238 236 234 232 231 232 231 231 233 235 233 232 231 232 234 233 233 234 235 236
289 293 296 295 294 298 302 300 294 283 277 282 291 296 297 297 297 301 300 293 303 313 314 314 310 315 326 318 313 319 318 325 334 329 318 326 336 324 298 309 325 321 313 303 294 288 283 273 259 249 243 237 233 235 237 237 236 234 233 235 236 235 235 235 235 234 232 231 233 234 233 234 235 236
275 276 281 286 288 286 284 283 280 280 280 274 271 277 281 283 284 288 290 290 294 300 307 309 308 318 326 318 317 319 315 317 321 319 316 316 318 312 302 303 316 321 319 315 307 295 285 279 271 266 261 254 246 241 240 238 238 238 236 236 238 239 238 236 234 235 234 233 233 234 234 233 234 236
273 271 275 286 292 283 273 269 269 275 281 275 267 267 271 276 282 286 288 292 296 300 305 305 305 315 323 321 322 322 317 314 312 309 309 308 307 309 308 302 302 313 316 316 316 311 301 291 277 267 264 263 260 255 251 247 243 240 239 239 240 241 241 240 238 237 237 236 235 236 236 235 235 235
279 276 276 285 291 286 277 272 271 270 269 271 274 271 268 269 276 280 281 285 293 302 305 304 307 320 324 318 320 324 320 313 307 301 297 298 297 299 307 305 300 306 309 306 308 313 315 310 299 282 269 263 263 263 260 259 254 246 241 240 240 241 242 242 241 240 239 239 238 238 237 236 237 237
278 278 279 282 283 283 282 278 274 266 258 262 271 273 267 260 262 268 273 277 283 290 295 300 311 319 318 316 321 325 324 318 308 297 289 290 290 289 296 296 293 302 304 297 293 300 307 309 306 301 291 276 268 266 263 264 265 259 250 243 240 240 242 244 244 243 243 242 242 241 239 237 238 239
273 274 275 277 278 278 278 279 280 273 259 255 260 265 265 262 262 263 265 270 274 277 284 294 304 304 305 315 319 324 329 327 318 305 295 290 287 283 284 284 286 300 308 302 295 303 310 308 304 305 304 296 286 277 271 267 266 266 265 259 250 244 244 245 246 246 247 247 246 245 243 241 239 239
270 270 270 272 273 271 271 273 276 276 263 253 254 258 259 260 263 262 261 265 267 269 276 285 287 287 294 307 311 323 332 326 320 319 314 301 288 282 285 284 279 287 297 295 294 305 313 305 300 303 305 301 293 284 279 275 271 270 272 270 263 256 251 249 248 248 247 248 249 247 245 244 243 241
267 267 266 267 265 261 262 264 265 268 264 255 252 253 255 255 255 255 258 261 260 260 265 272 276 282 290 297 302 317 324 315 315 326 324 315 306 299 297 292 284 282 284 285 290 299 305 303 302 306 309 305 296 280 268 268 271 272 274 274 273 270 265 261 257 252 248 246 247 247 246 246 246 245
263 262 261 261 259 256 253 253 254 256 256 254 253 251 250 247 247 251 254 252 249 254 262 270 277 282 286 290 297 310 318 316 324 334 326 315 311 306 302 295 288 285 283 283 288 294 299 300 297 301 307 306 301 297 286 274 272 273 274 277 278 277 274 270 268 265 260 253 247 246 246 246 246 247
258 257 257 255 253 250 246 248 253 254 251 251 251 249 247 246 245 249 252 249 247 253 262 268 272 275 280 288 298 304 311 317 323 326 318 311 312 310 303 294 286 282 285 287 284 280 284 285 281 280 283 290 303 315 312 298 295 293 288 284 283 281 278 275 273 273 270 261 252 248 246 246 246 246
257 255 254 250 250 252 253 254 257 257 254 253 252 247 241 241 248 253 251 248 249 255 263 269 273 275 279 285 292 295 300 302 303 313 317 314 316 313 305 297 288 279 281 288 287 282 277 277 277 272 266 278 297 303 284 285 300 305 302 300 297 294 288 282 279 276 270 261 254 252 251 249 248 247
258 257 255 250 249 251 254 257 258 257 257 255 254 251 242 235 238 247 252 251 250 253 259 266 271 273 276 280 282 286 291 287 287 303 309 307 313 318 314 309 303 291 286 290 289 285 277 270 272 272 269 273 274 261 263 283 301 302 299 301 302 304 303 295 288 282 274 267 259 256 256 255 253 252
257 256 255 252 246 242 245 251 252 254 256 256 254 254 250 241 235 235 242 249 252 255 258 261 265 268 273 276 276 279 282 279 281 291 293 300 315 314 305 301 298 297 297 292 287 284 278 270 267 268 267 261 259 263 270 284 296 297 297 299 298 304 307 300 291 283 276 275 272 266 263 262 260 259
256 254 253 251 247 242 243 247 245 243 248 253 253 253 252 248 242 237 236 239 244 251 257 262 263 265 270 273 275 278 275 267 269 277 282 295 306 301 299 299 297 297 296 288 283 282 278 271 267 266 264 255 257 270 277 286 297 297 293 292 292 294 298 293 287 283 281 288 292 286 280 277 273 268
254 253 250 249 249 245 241 241 241 238 239 242 245 245 244 244 244 243 240 238 238 242 247 252 255 258 264 269 273 275 263 252 256 267 277 288 294 297 301 296 284 281 281 276 277 280 276 271 269 268 268 261 250 259 272 286 299 297 288 289 293 294 298 295 288 286 291 302 306 300 296 294 290 283
253 251 249 248 249 248 244 240 237 236 236 236 236 237 237 237 236 237 238 239 239 239 240 242 246 252 258 262 266 267 257 249 250 255 265 277 284 290 291 283 272 270 267 255 260 274 277 274 273 271 271 269 255 251 263 280 295 294 288 291 298 298 298 293 288 290 295 299 300 298 299 302 302 298
251 250 248 246 246 247 247 242 238 238 238 236 237 239 240 240 239 235 234 237 240 242 241 239 240 242 247 252 257 256 249 244 243 249 256 260 266 276 281 282 281 284 278 248 242 268 278 274 272 272 270 268 263 253 253 266 284 294 292 290 293 294 295 293 290 293 297 298 299 298 299 303 302 301
248 248 247 245 244 245 247 243 240 242 242 237 238 243 243 243 246 244 239 237 240 245 246 244 242 244 246 252 257 253 245 240 236 241 250 253 258 269 278 284 287 292 291 268 236 253 274 275 272 272 269 265 263 258 248 250 266 284 287 283 279 276 278 289 296 296 295 296 298 298 299 299 298 301
248 250 249 247 243 243 246 245 243 244 242 236 236 242 241 242 247 247 244 239 238 242 246 247 246 246 247 250 254 252 244 238 234 234 240 248 260 265 269 279 285 288 286 266 229 244 270 275 270 268 268 263 259 255 241 233 255 280 288 288 287 279 275 285 294 295 294 294 293 296 298 298 301 307
256 261 261 258 253 249 248 248 249 250 245 235 233 237 238 242 246 245 243 240 234 231 236 240 242 244 244 245 249 249 242 235 232 232 234 240 252 258 264 272 280 284 279 233 221 264 276 277 270 263 264 266 258 246 227 220 237 262 277 289 295 293 290 290 288 287 289 287 286 289 293 295 302 308
260 261 262 262 262 261 257 254 254 254 250 242 235 232 234 240 245 244 241 238 233 230 231 233 235 237 238 238 240 241 237 233 232 231 231 233 238 247 258 263 266 275 280 260 254 272 276 277 274 266 262 266 265 251 232 223 224 228 232 245 268 281 290 297 294 292 298 303 300 296 292 294 302 304
264 260 255 251 255 261 263 262 260 258 256 251 241 234 236 241 243 243 241 237 236 237 237 236 234 230 226 224 225 226 225 227 231 233 233 231 231 235 247 254 259 269 274 266 257 261 263 266 270 268 262 260 262 263 255 239 225 220 220 227 245 264 277 282 281 285 300 317 318 309 305 306 309 310
270 266 260 255 260 266 267 269 270 267 263 258 249 245 246 247 245 243 242 241 243 244 242 242 242 237 228 221 219 220 219 218 222 227 229 229 228 229 235 243 252 261 266 269 268 259 252 255 260 262 261 258 258 260 260 253 236 212 209 230 245 253 258 260 263 268 279 297 302 304 311 315 319 323
280 281 282 281 280 278 274 273 274 272 266 261 259 261 260 256 250 246 243 241 242 245 249 250 248 242 234 228 225 225 223 218 213 213 217 220 221 225 230 234 240 247 252 262 267 256 248 254 259 257 258 262 261 257 256 257 247 219 213 231 242 250 255 256 258 261 264 268 275 293 309 315 323 331
284 286 284 279 276 277 279 280 278 275 270 263 263 267 268 264 256 249 244 238 235 237 242 246 247 244 237 232 229 226 222 220 215 209 210 214 216 220 226 230 233 237 242 247 251 249 248 253 257 258 259 260 260 260 259 259 255 245 239 240 242 242 245 248 253 258 262 265 272 288 299 302 312 325
295 289 285 284 282 281 281 282 281 278 275 270 266 264 265 265 256 245 239 234 229 229 231 233 238 242 239 236 233 228 226 228 221 209 205 209 212 216 222 226 227 230 238 244 244 242 244 249 253 258 261 258 257 259 261 261 261 259 253 253 250 233 224 240 256 259 260 264 271 280 287 290 295 303
314 307 304 302 299 292 287 284 281 276 274 272 269 264 259 255 246 236 230 227 223 224 227 228 231 236 240 241 236 229 231 232 223 209 204 206 209 212 216 222 224 224 232 240 240 235 236 242 248 253 257 257 255 255 258 262 267 265 257 253 253 236 214 232 250 255 258 262 265 271 281 288 289 291
316 312 309 304 299 296 294 291 284 276 267 262 260 256 250 245 238 228 224 225 223 222 227 233 237 238 238 239 237 234 232 228 221 215 210 208 211 212 211 218 228 229 226 226 228 228 229 234 240 245 251 253 252 251 256 261 264 265 260 250 249 249 241 236 245 249 250 252 258 265 273 280 282 288
311 309 306 299 294 293 292 289 285 277 263 250 244 241 236 234 231 226 224 226 226 224 228 236 245 247 242 239 240 237 228 223 227 227 217 212 217 219 216 219 228 235 231 222 217 219 224 230 236 239 243 249 253 254 258 259 258 260 259 248 240 246 246 240 243 245 240 243 259 265 265 271 280 287
305 304 299 292 289 289 288 286 285 280 269 256 248 242 234 229 224 217 217 220 222 224 227 230 236 242 242 242 245 241 228 224 230 228 217 216 221 223 226 229 231 235 239 233 219 214 218 225 230 232 236 244 250 253 257 259 259 260 259 248 233 233 235 233 236 237 232 237 257 262 259 263 274 283
297 290 284 282 284 288 290 290 289 286 282 276 269 257 245 239 232 220 217 221 224 227 229 231 232 234 232 231 237 239 233 230 229 220 216 221 223 223 230 236 237 236 241 242 230 216 210 211 216 224 231 239 245 246 247 251 255 258 258 251 239 234 231 222 220 225 227 234 253 263 261 260 264 275
289 284 284 283 283 284 285 285 285 283 281 279 276 269 260 251 241 230 227 227 224 222 225 227 229 227 224 223 227 228 227 231 232 222 215 217 220 227 234 238 238 238 238 241 238 225 210 203 206 215 223 230 239 243 241 239 244 250 252 246 237 232 222 209 209 216 220 230 248 259 259 256 253 258
286 289 293 291 289 290 285 281 282 281 279 277 274 271 269 261 245 235 232 230 224 223 227 231 230 225 221 224 229 227 224 226 228 221 212 213 221 230 234 236 237 239 240 240 239 232 218 208 208 217 225 228 235 246 241 232 231 237 240 233 222 215 205 197 202 208 210 219 230 238 249 253 248 236
293 295 297 295 293 292 288 285 286 284 281 280 278 274 275 274 265 254 244 233 228 231 236 240 239 235 231 230 232 230 223 222 224 223 220 222 225 227 229 232 233 236 239 239 238 234 223 209 208 218 230 238 244 254 249 222 211 219 228 223 210 202 196 192 197 201 204 213 217 225 248 257 241 213
300 300 300 299 297 295 294 293 292 288 284 282 281 277 276 277 276 272 261 246 240 243 246 246 243 242 239 235 233 232 226 222 224 225 224 225 226 226 228 232 232 231 233 235 237 234 220 206 206 216 227 238 243 249 252 225 204 211 222 219 207 197 194 196 200 199 199 205 208 213 238 234 206 211
303 303 303 303 300 299 299 296 294 293 291 287 284 281 277 275 275 273 266 257 251 249 250 251 246 240 237 233 231 230 227 224 225 225 226 229 231 230 229 230 232 232 231 232 235 230 216 206 208 215 222 232 242 252 263 252 211 198 208 208 201 194 192 199 201 197 196 200 195 184 187 190 194 200
310 307 304 303 302 302 301 298 296 295 293 291 289 285 282 278 276 272 267 266 265 260 253 251 248 244 240 236 230 227 226 227 227 227 228 232 235 234 231 231 231 233 232 230 229 223 213 209 210 214 221 233 241 246 252 200 161 161 180 195 196 192 189 195 200 199 197 195 190 189 190 183 181 185
313 309 306 305 304 304 302 300 299 298 295 293 292 290 287 282 278 276 274 271 271 268 262 257 256 252 246 238 228 221 223 227 229 229 229 233 235 234 230 229 230 231 232 230 224 219 215 213 212 214 220 227 224 206 187 186 193 193 186 187 193 192 187 190 199 201 196 193 195 201 202 195 192 198
312 311 310 309 307 306 303 301 301 299 297 297 295 294 292 287 281 280 278 271 264 261 260 261 262 258 251 241 231 224 224 227 230 231 231 232 234 230 225 223 226 227 228 229 225 219 211 204 203 205 209 209 206 205 211 226 229 207 175 168 185 194 193 196 201 193 184 190 199 202 200 203 212 212
313 312 311 311 310 308 306 304 302 300 299 299 297 295 292 289 285 283 280 274 268 263 259 258 256 251 248 244 238 233 231 227 226 231 233 230 229 228 223 220 223 226 227 228 225 216 196 176 180 190 195 196 200 209 219 228 225 197 162 157 173 189 193 200 205 199 191 196 202 195 184 190 206 218
314 313 311 311 309 308 307 306 305 303 302 300 299 296 292 290 288 286 283 280 276 271 266 262 256 249 247 245 241 238 237 230 224 230 235 230 226 227 226 221 221 225 226 224 221 214 194 171 171 185 195 195 196 204 218 223 217 190 160 158 166 172 181 193 199 199 198 204 205 196 189 193 200 162
315 312 311 310 308 307 306 306 306 306 306 305 302 299 295 291 287 284 282 280 279 276 272 268 260 249 244 244 242 244 249 246 238 240 242 234 224 225 227 225 222 222 221 221 220 213 196 180 179 189 196 194 193 202 216 219 208 176 152 155 163 165 173 184 186 177 173 188 196 194 194 203 216 231